Terug naar catalogus

STARLINK-2728

ActiefCommunicatieVLEO
NORAD 48478·PAYLOAD·🇺🇸 United States

Gelanceerd May 9, 2021 vanaf Cape Canaveral Space Force Station

Loading…

Volgende Passages (komende 24 uur)

TLE

VersSource: CelesTrak SupGP

Epoch: Sep 15, 2026, 01:10 UTC

1 48478C 21040BC  26258.04909722 -.00029429  00000+0 -94635-3 0  2589
2 48478  53.1593  29.9018 0001117  80.9540 117.0470 15.31716743    13

Volg STARLINK-2728 in realtime met AllMySat

Download on the App Store